contact:dominique.lefevre@mio.osupytheas.fr, maurice.libes@osupytheas.fr, didier.mallarino@osupytheas.fr
Project:EMSO http://www.emso-fr.org/EMSO-France
Depth: 2436.0 m
Title:EMSO Ligure Ouest : Data MII capteur AQUADOPP
Date,Latitude,Longitude,X_East,Y_North,Z_Up,Amplitude_X,Amplitude_Y,Amplitude_Z,Batterie,SoundSpeed,Heading,Pitch,Roll,Pressure,TIS,Speed,Direction
, degrees North, degrees East, m.s-1, m.s-1,m.s-1, 1, 1, 1, Volt, m.s-1, degree, degree, degree, dbar, degree_C, m.s-1, degree
2020-05-12T00:04:03,42.805,6.029,0.034,0.047,0.012,103.0,110.0,101.0,13.4,1505.3,327.4,-0.7,1.8,2470.468,13.31,0.058,35.9
2020-05-12T00:07:03,42.805,6.029,-0.004,0.017,-0.025,104.0,108.0,101.0,13.3,1505.3,323.5,-0.7,1.8,2470.436,13.31,0.017,346.8
2020-05-12T00:10:03,42.805,6.029,-0.017,0.048,-0.012,103.0,109.0,102.0,13.4,1505.3,324.9,-0.7,1.8,2470.423,13.32,0.05,340.5
2020-05-12T00:13:03,42.805,6.029,-0.004,0.023,-0.029,102.0,108.0,101.0,13.4,1505.3,324.9,-0.7,1.8,2470.452,13.32,0.023,350.1
2020-05-12T00:16:03,42.805,6.029,0.008,0.039,-0.013,103.0,109.0,102.0,13.4,1505.3,326.2,-0.7,1.8,2470.463,13.32,0.039,11.6
2020-05-12T00:19:03,42.805,6.029,-0.005,0.043,-0.001,104.0,110.0,101.0,13.4,1505.3,325.7,-0.7,1.8,2470.433,13.33,0.043,353.4
2020-05-12T00:22:03,42.805,6.029,0.012,0.042,0.002,104.0,111.0,101.0,13.3,1505.3,326.7,-0.7,1.9,2470.416,13.33,0.043,15.9
2020-05-12T00:25:03,42.805,6.029,0.004,0.045,-0.002,104.0,111.0,101.0,13.4,1505.3,325.9,-0.7,1.8,2470.417,13.33,0.045,5.1
2020-05-12T00:28:03,42.805,6.029,0.0,0.07,-0.013,104.0,113.0,101.0,13.3,1505.3,325.5,-0.7,1.8,2470.4,13.33,0.069,0.0
2020-05-12T00:31:03,42.805,6.029,-0.016,0.04,-0.025,104.0,113.0,101.0,13.4,1505.3,326.4,-0.7,1.8,2470.443,13.33,0.043,338.2
2020-05-12T00:34:03,42.805,6.029,0.003,0.041,-0.034,103.0,111.0,101.0,13.4,1505.3,324.2,-0.7,1.8,2470.409,13.33,0.041,4.2
2020-05-12T00:37:03,42.805,6.029,-0.033,0.034,-0.017,103.0,112.0,101.0,13.3,1505.3,324.8,-0.7,1.8,2470.427,13.33,0.047,315.9
2020-05-12T00:40:03,42.805,6.029,-0.025,0.04,0.005,103.0,112.0,102.0,13.4,1505.3,324.4,-0.7,1.9,2470.443,13.33,0.047,328.0
2020-05-12T00:43:03,42.805,6.029,-0.021,0.038,-0.018,105.0,110.0,101.0,13.4,1505.3,324.5,-0.7,1.8,2470.436,13.33,0.043,331.1
2020-05-12T00:46:03,42.805,6.029,0.016,0.03,-0.046,103.0,111.0,101.0,13.3,1505.3,326.8,-0.7,1.9,2470.413,13.33,0.034,28.1
2020-05-12T00:49:03,42.805,6.029,-0.01,0.06,-0.005,103.0,113.0,102.0,13.4,1505.3,326.3,-0.7,1.8,2470.444,13.33,0.06,350.5
2020-05-12T00:52:03,42.805,6.029,0.0,0.05,-0.009,103.0,111.0,103.0,13.3,1505.3,323.5,-0.7,1.8,2470.366,13.33,0.05,0.0
2020-05-12T00:55:03,42.805,6.029,0.001,0.033,-0.028,105.0,113.0,101.0,13.4,1505.3,323.7,-0.7,1.8,2470.409,13.33,0.033,1.7
2020-05-12T00:58:03,42.805,6.029,0.0,0.03,-0.023,104.0,113.0,102.0,13.4,1505.3,325.8,-0.7,1.8,2470.364,13.33,0.03,0.0
2020-05-12T01:04:03,42.805,6.029,-0.003,0.062,0.014,104.0,116.0,102.0,13.3,1505.3,326.4,-0.7,1.8,2470.391,13.31,0.062,357.2
2020-05-12T01:07:03,42.805,6.029,0.026,0.052,-0.015,104.0,115.0,100.0,13.4,1505.3,327.0,-0.7,1.8,2470.394,13.31,0.058,26.6
2020-05-12T01:10:03,42.805,6.029,-0.011,0.04,-0.03,103.0,114.0,100.0,13.4,1505.3,325.1,-0.7,1.8,2470.375,13.32,0.041,344.6
2020-05-12T01:13:03,42.805,6.029,-0.008,0.064,-0.017,104.0,113.0,101.0,13.3,1505.3,323.2,-0.7,1.8,2470.425,13.32,0.064,352.9
2020-05-12T01:16:03,42.805,6.029,-0.014,0.059,-0.013,103.0,113.0,102.0,13.3,1505.3,323.1,-0.7,1.8,2470.408,13.32,0.06,346.7
2020-05-12T01:19:03,42.805,6.029,0.005,0.043,-0.018,103.0,112.0,101.0,13.4,1505.3,326.1,-0.7,1.9,2470.409,13.33,0.043,6.6
2020-05-12T01:22:03,42.805,6.029,-0.005,0.049,-0.02,103.0,116.0,101.0,13.4,1505.3,328.2,-0.7,1.9,2470.385,13.33,0.049,354.2
2020-05-12T01:25:03,42.805,6.029,0.001,0.041,-0.009,103.0,116.0,99.0,13.4,1505.3,326.0,-0.7,1.8,2470.367,13.33,0.041,1.4
2020-05-12T01:28:03,42.805,6.029,-0.002,0.03,-0.016,102.0,117.0,101.0,13.4,1505.3,326.7,-0.7,1.8,2470.389,13.33,0.03,356.2
2020-05-12T01:31:03,42.805,6.029,0.0,0.041,-0.031,102.0,118.0,100.0,13.4,1505.3,323.3,-0.7,1.8,2470.385,13.33,0.041,0.0
2020-05-12T01:34:03,42.805,6.029,0.001,0.04,-0.011,103.0,114.0,101.0,13.4,1505.3,325.2,-0.7,1.8,2470.392,13.33,0.04,1.4
2020-05-12T01:37:03,42.805,6.029,-0.003,0.031,-0.029,104.0,115.0,100.0,13.4,1505.3,328.4,-0.7,1.8,2470.38,13.33,0.031,354.5
2020-05-12T01:40:03,42.805,6.029,-0.013,0.056,-0.018,102.0,113.0,101.0,13.4,1505.3,323.6,-0.7,1.8,2470.373,13.33,0.057,346.9
2020-05-12T01:43:03,42.805,6.029,0.015,0.028,-0.003,102.0,112.0,101.0,13.4,1505.3,323.7,-0.7,1.9,2470.406,13.33,0.031,28.2
2020-05-12T01:46:03,42.805,6.029,-0.013,0.041,-0.06,105.0,115.0,101.0,13.4,1505.3,325.9,-0.7,1.8,2470.346,13.33,0.043,342.4
2020-05-12T01:49:03,42.805,6.029,-0.002,0.035,-0.014,103.0,114.0,101.0,13.4,1505.3,324.4,-0.7,1.8,2470.384,13.33,0.035,356.7
2020-05-12T01:52:03,42.805,6.029,-0.023,0.055,-0.025,103.0,118.0,101.0,13.3,1505.3,327.7,-0.7,1.8,2470.329,13.33,0.059,337.3
2020-05-12T01:55:03,42.805,6.029,0.018,0.047,-0.028,102.0,117.0,102.0,13.4,1505.3,326.5,-0.7,1.8,2470.329,13.33,0.05,21.0
2020-05-12T01:58:03,42.805,6.029,0.01,0.033,-0.01,104.0,117.0,101.0,13.4,1505.3,326.9,-0.7,1.8,2470.348,13.33,0.034,16.9
2020-05-12T02:04:03,42.805,6.029,0.018,0.032,-0.031,103.0,115.0,100.0,13.3,1505.3,327.2,-0.8,1.8,2470.381,13.31,0.036,29.4
2020-05-12T02:07:03,42.805,6.029,-0.013,0.04,-0.039,103.0,115.0,100.0,13.3,1505.3,327.2,-0.7,1.8,2470.425,13.31,0.042,342.0
2020-05-12T02:10:03,42.805,6.029,-0.008,0.036,-0.055,103.0,114.0,101.0,13.4,1505.3,325.0,-0.7,1.8,2470.33,13.32,0.036,347.5
2020-05-12T02:13:03,42.805,6.029,-0.009,0.028,-0.032,104.0,112.0,101.0,13.4,1505.3,322.6,-0.7,1.8,2470.386,13.32,0.029,342.2
2020-05-12T02:16:03,42.805,6.029,0.0,0.032,-0.029,103.0,112.0,100.0,13.3,1505.3,325.5,-0.7,1.8,2470.368,13.33,0.032,0.0
2020-05-12T02:19:03,42.805,6.029,0.002,0.036,-0.041,101.0,112.0,101.0,13.4,1505.3,326.5,-0.7,1.8,2470.38,13.33,0.036,3.2
2020-05-12T02:22:03,42.805,6.029,0.002,0.04,-0.039,103.0,114.0,100.0,13.4,1505.3,324.0,-0.7,1.9,2470.371,13.33,0.04,2.9
2020-05-12T02:25:03,42.805,6.029,-0.024,0.044,-0.045,103.0,115.0,100.0,13.3,1505.3,328.2,-0.7,1.8,2470.342,13.33,0.05,331.4
2020-05-12T02:28:03,42.805,6.029,0.007,0.054,-0.002,104.0,113.0,101.0,13.3,1505.3,326.9,-0.7,1.8,2470.356,13.33,0.054,7.4
2020-05-12T02:31:03,42.805,6.029,-0.008,0.028,-0.018,103.0,112.0,101.0,13.3,1505.3,323.4,-0.7,1.9,2470.354,13.33,0.029,344.1
2020-05-12T02:34:03,42.805,6.029,-0.027,0.042,-0.029,103.0,112.0,101.0,13.3,1505.3,325.6,-0.7,1.8,2470.399,13.33,0.049,327.3
2020-05-12T02:37:03,42.805,6.029,0.004,0.029,-0.048,102.0,112.0,102.0,13.3,1505.3,325.7,-0.7,1.9,2470.316,13.33,0.029,7.8
2020-05-12T02:40:03,42.805,6.029,-0.006,0.046,-0.027,104.0,113.0,100.0,13.4,1505.3,326.9,-0.7,1.8,2470.303,13.33,0.046,352.6
2020-05-12T02:43:03,42.805,6.029,-0.005,0.022,-0.016,104.0,113.0,101.0,13.4,1505.3,324.3,-0.7,1.8,2470.32,13.33,0.022,347.2
2020-05-12T02:46:03,42.805,6.029,0.0,0.036,-0.046,102.0,113.0,100.0,13.4,1505.3,324.6,-0.7,1.8,2470.353,13.33,0.036,0.0
2020-05-12T02:49:03,42.805,6.029,-0.007,0.031,-0.041,103.0,112.0,101.0,13.4,1505.3,326.0,-0.7,1.8,2470.345,13.33,0.031,347.3
2020-05-12T02:52:03,42.805,6.029,0.003,0.025,-0.025,104.0,112.0,101.0,13.4,1505.3,327.3,-0.7,1.8,2470.316,13.33,0.025,6.8
2020-05-12T02:55:03,42.805,6.029,-0.004,0.031,-0.032,104.0,112.0,101.0,13.4,1505.3,326.4,-0.7,1.8,2470.317,13.33,0.031,352.7
2020-05-12T02:58:03,42.805,6.029,0.007,0.037,-0.02,102.0,111.0,102.0,13.4,1505.3,328.4,-0.7,1.8,2470.33,13.33,0.037,10.7
2020-05-12T03:04:03,42.805,6.029,0.009,0.028,-0.036,104.0,112.0,100.0,13.4,1505.3,326.1,-0.7,1.8,2470.335,13.31,0.029,17.8
2020-05-12T03:07:03,42.805,6.029,-0.008,0.03,0.0,103.0,112.0,101.0,13.4,1505.3,324.3,-0.7,1.8,2470.402,13.32,0.031,345.1
2020-05-12T03:10:03,42.805,6.029,0.008,0.025,-0.019,103.0,113.0,101.0,13.4,1505.3,326.6,-0.7,1.8,2470.348,13.32,0.026,17.7
2020-05-12T03:13:03,42.805,6.029,-0.003,0.031,-0.003,104.0,110.0,99.0,13.4,1505.3,326.0,-0.7,1.9,2470.368,13.33,0.031,354.5
2020-05-12T03:16:03,42.805,6.029,0.012,0.035,-0.007,104.0,109.0,101.0,13.4,1505.3,323.9,-0.7,1.8,2470.348,13.33,0.037,18.9
2020-05-12T03:19:03,42.805,6.029,0.011,0.037,-0.004,104.0,111.0,101.0,13.4,1505.3,326.1,-0.7,1.8,2470.341,13.33,0.038,16.6
2020-05-12T03:22:03,42.805,6.029,0.016,0.03,0.0,104.0,111.0,101.0,13.4,1505.3,324.6,-0.7,1.8,2470.297,13.33,0.034,28.1
2020-05-12T03:25:03,42.805,6.029,0.001,0.042,-0.013,105.0,110.0,101.0,13.4,1505.3,328.1,-0.7,1.8,2470.324,13.33,0.042,1.4
2020-05-12T03:28:03,42.805,6.029,-0.012,0.042,-0.031,104.0,114.0,101.0,13.4,1505.3,324.4,-0.7,1.8,2470.323,13.33,0.043,344.1
2020-05-12T03:31:03,42.805,6.029,0.007,0.042,0.005,103.0,111.0,100.0,13.4,1505.3,328.0,-0.7,1.8,2470.302,13.33,0.042,9.5
2020-05-12T03:34:03,42.805,6.029,0.001,0.042,-0.028,104.0,111.0,101.0,13.3,1505.3,327.3,-0.7,1.8,2470.324,13.33,0.042,1.4
2020-05-12T03:37:03,42.805,6.029,0.014,0.046,-0.037,104.0,110.0,101.0,13.4,1505.3,325.1,-0.7,1.8,2470.287,13.33,0.048,16.9
2020-05-12T03:40:03,42.805,6.029,-0.018,0.041,-0.047,104.0,113.0,101.0,13.4,1505.3,326.9,-0.7,1.8,2470.293,13.33,0.044,336.3
2020-05-12T03:43:03,42.805,6.029,0.001,0.022,-0.027,104.0,112.0,102.0,13.4,1505.3,326.4,-0.7,1.8,2470.292,13.33,0.022,2.6
2020-05-12T03:46:03,42.805,6.029,0.029,0.039,-0.001,104.0,112.0,101.0,13.4,1505.3,324.6,-0.7,1.8,2470.298,13.33,0.048,36.6
2020-05-12T03:49:03,42.805,6.029,0.003,0.047,-0.007,103.0,111.0,101.0,13.3,1505.3,326.4,-0.7,1.8,2470.32,13.33,0.047,3.6
2020-05-12T03:52:03,42.805,6.029,0.008,0.028,-0.007,103.0,111.0,102.0,13.4,1505.3,328.5,-0.7,1.9,2470.315,13.33,0.029,15.9
2020-05-12T03:55:03,42.805,6.029,0.03,0.039,-0.031,104.0,111.0,102.0,13.3,1505.3,326.7,-0.7,1.8,2470.334,13.33,0.049,37.6
2020-05-12T03:58:03,42.805,6.029,-0.002,0.03,0.006,104.0,112.0,101.0,13.3,1505.3,328.5,-0.7,1.8,2470.281,13.33,0.03,356.2
2020-05-12T04:04:03,42.805,6.029,-0.001,0.037,-0.013,103.0,110.0,101.0,13.4,1505.3,328.5,-0.7,1.9,2470.341,13.31,0.037,358.5
2020-05-12T04:07:03,42.805,6.029,0.013,0.053,-0.042,104.0,110.0,101.0,13.4,1505.3,324.4,-0.7,1.9,2470.316,13.32,0.054,13.8
2020-05-12T04:10:03,42.805,6.029,0.006,0.031,-0.016,104.0,110.0,101.0,13.3,1505.3,324.3,-0.7,1.8,2470.293,13.33,0.031,11.0
2020-05-12T04:13:03,42.805,6.029,-0.017,0.05,-0.046,104.0,110.0,101.0,13.4,1505.3,326.4,-0.7,1.8,2470.333,13.33,0.052,341.2
2020-05-12T04:16:03,42.805,6.029,0.013,0.031,-0.012,103.0,109.0,101.0,13.4,1505.3,326.5,-0.7,1.8,2470.302,13.33,0.033,22.7
2020-05-12T04:19:03,42.805,6.029,0.002,0.025,0.004,103.0,110.0,101.0,13.4,1505.3,324.9,-0.7,1.8,2470.273,13.33,0.025,4.6
2020-05-12T04:22:03,42.805,6.029,0.012,0.044,-0.014,104.0,110.0,102.0,13.3,1505.3,326.5,-0.7,1.9,2470.339,13.33,0.045,15.3
2020-05-12T04:25:03,42.805,6.029,0.016,0.024,-0.035,104.0,110.0,102.0,13.3,1505.3,326.5,-0.7,1.8,2470.3,13.33,0.028,33.7
2020-05-12T04:28:03,42.805,6.029,-0.023,0.033,-0.018,106.0,111.0,101.0,13.4,1505.3,324.3,-0.7,1.8,2470.305,13.33,0.04,325.1
2020-05-12T04:31:03,42.805,6.029,0.02,0.033,-0.002,104.0,110.0,100.0,13.3,1505.3,324.3,-0.7,1.8,2470.282,13.33,0.038,31.2
2020-05-12T04:34:03,42.805,6.029,-0.009,0.037,-0.047,104.0,110.0,102.0,13.4,1505.3,323.8,-0.7,1.8,2470.286,13.33,0.038,346.3
2020-05-12T04:37:03,42.805,6.029,-0.015,0.036,-0.047,104.0,111.0,102.0,13.4,1505.3,323.9,-0.7,1.8,2470.227,13.33,0.039,337.4
2020-05-12T04:40:03,42.805,6.029,-0.007,0.049,-0.025,104.0,111.0,102.0,13.4,1505.3,327.2,-0.7,1.8,2470.249,13.33,0.049,351.9
2020-05-12T04:43:03,42.805,6.029,0.008,0.024,-0.029,104.0,111.0,101.0,13.4,1505.3,325.4,-0.7,1.8,2470.283,13.33,0.025,18.4
2020-05-12T04:46:03,42.805,6.029,0.001,0.029,-0.042,104.0,111.0,101.0,13.3,1505.3,328.5,-0.7,1.8,2470.304,13.33,0.029,2.0
2020-05-12T04:49:03,42.805,6.029,0.022,0.024,-0.014,105.0,111.0,103.0,13.4,1505.3,323.7,-0.7,1.8,2470.283,13.33,0.032,42.5
2020-05-12T04:52:03,42.805,6.029,0.001,0.042,-0.001,104.0,110.0,102.0,13.4,1505.3,324.0,-0.7,1.8,2470.293,13.33,0.042,1.4
2020-05-12T04:55:03,42.805,6.029,0.0,0.032,-0.018,105.0,111.0,101.0,13.4,1505.3,325.0,-0.7,1.9,2470.296,13.33,0.032,0.0
2020-05-12T04:58:03,42.805,6.029,0.005,0.047,-0.03,105.0,110.0,101.0,13.4,1505.3,324.1,-0.7,1.8,2470.276,13.33,0.047,6.1
2020-05-12T05:04:03,42.805,6.029,0.028,0.033,0.002,104.0,111.0,101.0,13.4,1505.3,326.4,-0.7,1.8,2470.33,13.31,0.043,40.3
2020-05-12T05:07:03,42.805,6.029,-0.031,0.028,-0.026,105.0,110.0,101.0,13.4,1505.3,322.9,-0.7,1.9,2470.287,13.32,0.041,312.1
2020-05-12T05:10:03,42.805,6.029,0.016,0.021,-0.009,103.0,111.0,102.0,13.4,1505.3,328.1,-0.7,1.9,2470.291,13.33,0.026,37.3
2020-05-12T05:13:03,42.805,6.029,-0.007,0.037,-0.014,104.0,111.0,102.0,13.4,1505.3,324.8,-0.7,1.8,2470.286,13.33,0.037,349.3
2020-05-12T05:16:03,42.805,6.029,-0.006,0.042,-0.041,104.0,110.0,101.0,13.4,1505.3,326.5,-0.7,1.8,2470.299,13.33,0.042,351.9
2020-05-12T05:19:03,42.805,6.029,0.011,0.046,-0.015,103.0,111.0,102.0,13.4,1505.3,323.8,-0.7,1.8,2470.232,13.33,0.047,13.4
2020-05-12T05:22:03,42.805,6.029,0.005,0.026,-0.004,103.0,109.0,102.0,13.4,1505.3,326.0,-0.7,1.9,2470.297,13.33,0.026,10.9
2020-05-12T05:25:03,42.805,6.029,-0.024,0.032,-0.039,105.0,113.0,101.0,13.4,1505.3,325.2,-0.7,1.8,2470.254,13.33,0.04,323.1
2020-05-12T05:28:03,42.805,6.029,0.018,0.028,-0.013,104.0,110.0,102.0,13.4,1505.3,326.5,-0.7,1.8,2470.278,13.33,0.033,32.7
2020-05-12T05:31:03,42.805,6.029,-0.009,0.016,-0.025,104.0,110.0,102.0,13.3,1505.3,323.6,-0.7,1.8,2470.259,13.33,0.018,330.6
2020-05-12T05:34:03,42.805,6.029,-0.01,0.029,-0.018,104.0,112.0,101.0,13.4,1505.3,326.3,-0.7,1.8,2470.239,13.33,0.03,341.0
2020-05-12T05:37:03,42.805,6.029,0.018,0.031,-0.011,104.0,110.0,102.0,13.4,1505.3,326.2,-0.7,1.8,2470.266,13.33,0.035,30.1
2020-05-12T05:40:03,42.805,6.029,0.02,0.016,-0.021,104.0,110.0,101.0,13.3,1505.3,324.2,-0.7,1.9,2470.245,13.33,0.025,51.3
2020-05-12T05:43:03,42.805,6.029,0.009,0.011,-0.033,104.0,111.0,102.0,13.3,1505.3,323.7,-0.7,1.8,2470.27,13.33,0.014,39.3
2020-05-12T05:46:03,42.805,6.029,-0.003,0.017,-0.03,105.0,110.0,101.0,13.3,1505.3,324.1,-0.7,1.9,2470.24,13.33,0.017,350.0
2020-05-12T05:49:03,42.805,6.029,-0.012,0.019,-0.066,104.0,112.0,102.0,13.4,1505.3,323.3,-0.7,1.8,2470.217,13.33,0.022,327.7
2020-05-12T05:52:03,42.805,6.029,0.018,0.016,-0.01,105.0,109.0,101.0,13.3,1505.4,324.4,-0.7,1.8,2470.29,13.34,0.024,48.4
2020-05-12T05:55:03,42.805,6.029,0.023,0.044,-0.017,104.0,108.0,103.0,13.4,1505.3,327.5,-0.7,1.8,2470.238,13.33,0.049,27.6
2020-05-12T05:58:03,42.805,6.029,-0.004,0.03,-0.039,104.0,109.0,102.0,13.4,1505.3,325.4,-0.7,1.9,2470.256,13.33,0.03,352.4
2020-05-12T06:04:03,42.805,6.029,0.019,0.029,-0.011,105.0,108.0,99.0,13.3,1505.3,325.5,-0.7,1.8,2470.293,13.31,0.034,33.2
2020-05-12T06:07:03,42.805,6.029,0.009,0.028,-0.017,104.0,109.0,102.0,13.4,1505.3,328.4,-0.7,1.8,2470.305,13.32,0.029,17.8
2020-05-12T06:10:03,42.805,6.029,0.019,0.027,0.005,104.0,109.0,101.0,13.4,1505.3,325.1,-0.7,1.9,2470.258,13.33,0.033,35.1
2020-05-12T06:13:03,42.805,6.029,-0.005,0.032,-0.033,104.0,109.0,101.0,13.4,1505.3,325.3,-0.7,1.8,2470.267,13.33,0.032,351.1
2020-05-12T06:16:03,42.805,6.029,-0.004,0.042,-0.002,105.0,110.0,103.0,13.4,1505.3,323.9,-0.7,1.8,2470.289,13.33,0.042,354.6
2020-05-12T06:19:03,42.805,6.029,0.036,0.021,0.014,103.0,109.0,100.0,13.4,1505.3,325.2,-0.8,1.8,2470.254,13.33,0.041,59.7
2020-05-12T06:22:03,42.805,6.029,0.007,0.037,0.013,102.0,109.0,103.0,13.4,1505.3,324.8,-0.7,1.8,2470.266,13.33,0.037,10.7
2020-05-12T06:25:03,42.805,6.029,0.032,0.042,0.005,106.0,108.0,101.0,13.4,1505.3,328.0,-0.7,1.8,2470.27,13.33,0.052,37.3
2020-05-12T06:28:03,42.805,6.029,0.002,0.032,-0.017,104.0,108.0,101.0,13.4,1505.4,323.3,-0.7,1.8,2470.276,13.34,0.032,3.6
2020-05-12T06:31:03,42.805,6.029,0.018,0.031,-0.021,103.0,109.0,102.0,13.4,1505.3,326.2,-0.7,1.8,2470.277,13.33,0.035,30.1
2020-05-12T06:34:03,42.805,6.029,0.029,0.026,-0.019,104.0,107.0,103.0,13.3,1505.3,324.9,-0.7,1.8,2470.268,13.33,0.038,48.1
2020-05-12T06:37:03,42.805,6.029,0.005,0.021,-0.009,105.0,109.0,101.0,13.4,1505.3,328.2,-0.7,1.8,2470.236,13.33,0.021,13.4
2020-05-12T06:40:03,42.805,6.029,0.036,0.024,-0.01,104.0,108.0,101.0,13.4,1505.4,324.9,-0.7,1.8,2470.27,13.34,0.043,56.3
2020-05-12T06:43:03,42.805,6.029,0.026,0.031,-0.008,106.0,109.0,101.0,13.4,1505.4,326.0,-0.7,1.8,2470.252,13.34,0.04,40.0
2020-05-12T06:46:03,42.805,6.029,0.012,0.021,-0.01,104.0,108.0,102.0,13.4,1505.3,325.4,-0.7,1.8,2470.274,13.33,0.024,29.7
2020-05-12T06:49:03,42.805,6.029,0.023,0.007,0.004,105.0,109.0,102.0,13.4,1505.3,327.6,-0.6,1.9,2470.265,13.33,0.024,73.1
2020-05-12T06:52:03,42.805,6.029,0.023,0.021,-0.006,105.0,108.0,102.0,13.4,1505.3,326.5,-0.7,1.8,2470.297,13.33,0.031,47.6
2020-05-12T06:55:03,42.805,6.029,0.029,0.011,-0.002,105.0,107.0,103.0,13.4,1505.3,325.6,-0.7,1.8,2470.233,13.33,0.031,69.2
2020-05-12T06:58:03,42.805,6.029,0.015,0.024,0.016,105.0,107.0,102.0,13.4,1505.3,322.9,-0.7,1.9,2470.259,13.33,0.028,32.0
2020-05-12T07:04:03,42.805,6.029,-0.004,0.013,-0.018,104.0,109.0,102.0,13.4,1505.3,325.1,-0.8,1.8,2470.326,13.31,0.013,342.9
2020-05-12T07:07:03,42.805,6.029,0.021,0.031,-0.016,104.0,108.0,102.0,13.4,1505.3,325.2,-0.8,1.8,2470.275,13.32,0.037,34.1
2020-05-12T07:10:03,42.805,6.029,0.016,0.03,-0.027,104.0,109.0,102.0,13.4,1505.3,323.6,-0.7,1.9,2470.292,13.33,0.034,28.1
2020-05-12T07:13:03,42.805,6.029,0.012,0.004,0.0,105.0,107.0,102.0,13.4,1505.3,328.0,-0.7,1.8,2470.301,13.33,0.012,71.6
2020-05-12T07:16:03,42.805,6.029,0.009,0.028,-0.019,103.0,107.0,103.0,13.4,1505.3,324.7,-0.7,1.8,2470.271,13.33,0.029,17.8
2020-05-12T07:19:03,42.805,6.029,0.014,0.016,-0.015,104.0,107.0,101.0,13.4,1505.3,324.9,-0.7,1.8,2470.299,13.33,0.021,41.2
2020-05-12T07:22:03,42.805,6.029,0.015,0.024,-0.001,103.0,108.0,102.0,13.3,1505.3,323.0,-0.7,1.8,2470.337,13.33,0.028,32.0
2020-05-12T07:25:03,42.805,6.029,0.011,0.024,-0.009,106.0,108.0,102.0,13.3,1505.3,325.4,-0.7,1.8,2470.297,13.33,0.026,24.6
2020-05-12T07:28:03,42.805,6.029,0.008,0.037,-0.003,105.0,106.0,103.0,13.4,1505.3,326.4,-0.7,1.8,2470.282,13.33,0.037,12.2
2020-05-12T07:34:03,42.805,6.029,0.026,0.027,-0.026,103.0,107.0,102.0,13.4,1505.3,325.1,-0.8,1.8,2470.308,13.31,0.037,43.9
2020-05-12T07:37:03,42.805,6.029,0.015,0.032,0.0,104.0,107.0,101.0,13.3,1505.3,323.3,-0.7,1.8,2470.381,13.32,0.035,25.1
2020-05-12T07:40:03,42.805,6.029,0.017,0.029,-0.018,105.0,107.0,101.0,13.4,1505.3,324.3,-0.7,1.9,2470.307,13.32,0.033,30.4
2020-05-12T07:43:03,42.805,6.029,0.015,0.022,-0.011,104.0,106.0,103.0,13.3,1505.3,323.3,-0.7,1.8,2470.305,13.33,0.026,34.3
2020-05-12T07:46:03,42.805,6.029,-0.012,0.034,-0.021,106.0,107.0,101.0,13.4,1505.3,325.0,-0.7,1.8,2470.318,13.33,0.036,340.6
2020-05-12T07:49:03,42.805,6.029,0.016,0.034,0.0,105.0,106.0,103.0,13.3,1505.3,323.3,-0.7,1.8,2470.298,13.33,0.037,25.2
2020-05-12T07:52:03,42.805,6.029,0.008,0.014,-0.041,103.0,107.0,102.0,13.4,1505.3,325.1,-0.7,1.8,2470.299,13.33,0.016,29.7
2020-05-12T07:55:03,42.805,6.029,0.02,0.025,-0.015,105.0,106.0,101.0,13.3,1505.4,324.7,-0.7,1.8,2470.335,13.34,0.032,38.7
2020-05-12T07:58:03,42.805,6.029,0.017,0.012,-0.025,104.0,107.0,102.0,13.4,1505.4,322.9,-0.7,1.8,2470.346,13.34,0.02,54.8
2020-05-12T08:04:03,42.805,6.029,-0.009,0.022,-0.017,105.0,107.0,102.0,13.4,1505.3,325.9,-0.8,1.8,2470.336,13.32,0.023,337.8
2020-05-12T08:07:03,42.805,6.029,-0.006,0.022,-0.053,105.0,108.0,101.0,13.4,1505.3,324.6,-0.7,1.8,2470.356,13.32,0.022,344.7
2020-05-12T08:10:03,42.805,6.029,-0.025,0.013,-0.058,105.0,108.0,101.0,13.3,1505.3,325.6,-0.7,1.8,2470.366,13.33,0.028,297.5
2020-05-12T08:13:03,42.805,6.029,-0.028,0.031,-0.062,106.0,108.0,102.0,13.4,1505.3,323.7,-0.7,1.8,2470.334,13.33,0.041,317.9
2020-05-12T08:16:03,42.805,6.029,0.003,0.022,-0.031,104.0,107.0,103.0,13.3,1505.3,326.4,-0.7,1.8,2470.331,13.33,0.022,7.8
2020-05-12T08:19:03,42.805,6.029,-0.001,0.022,-0.042,105.0,107.0,103.0,13.4,1505.3,324.2,-0.7,1.8,2470.339,13.33,0.022,357.4
2020-05-12T08:22:03,42.805,6.029,0.03,0.01,-0.023,105.0,106.0,102.0,13.4,1505.4,327.8,-0.7,1.9,2470.305,13.34,0.031,71.6
2020-05-12T08:25:03,42.805,6.029,0.0,0.019,-0.042,105.0,106.0,101.0,13.4,1505.4,328.1,-0.7,1.8,2470.325,13.34,0.019,0.0
2020-05-12T08:28:03,42.805,6.029,0.002,0.025,0.001,104.0,105.0,101.0,13.3,1505.4,328.6,-0.7,1.8,2470.33,13.34,0.025,4.6
2020-05-12T08:31:03,42.805,6.029,0.02,0.011,-0.028,104.0,108.0,102.0,13.4,1505.4,327.8,-0.7,1.8,2470.31,13.34,0.022,61.2
2020-05-12T08:34:03,42.805,6.029,-0.028,0.001,-0.036,104.0,107.0,103.0,13.4,1505.4,326.9,-0.7,1.8,2470.337,13.34,0.028,272.0
2020-05-12T08:37:03,42.805,6.029,0.01,0.016,-0.027,105.0,106.0,105.0,13.4,1505.4,324.8,-0.7,1.8,2470.351,13.34,0.018,32.0
2020-05-12T08:40:03,42.805,6.029,0.013,0.017,-0.037,105.0,107.0,105.0,13.4,1505.4,325.6,-0.6,1.8,2470.343,13.34,0.021,37.4
2020-05-12T08:43:03,42.805,6.029,0.004,0.021,-0.034,104.0,107.0,101.0,13.4,1505.4,325.4,-0.7,1.9,2470.297,13.34,0.021,10.8
2020-05-12T08:46:03,42.805,6.029,0.001,0.028,-0.029,105.0,110.0,102.0,13.4,1505.4,325.5,-0.7,1.8,2470.341,13.34,0.028,2.0
2020-05-12T08:49:03,42.805,6.029,-0.011,0.023,-0.045,105.0,107.0,102.0,13.4,1505.4,324.6,-0.7,1.9,2470.323,13.34,0.025,334.4
2020-05-12T08:52:03,42.805,6.029,0.0,0.031,0.002,105.0,107.0,103.0,13.4,1505.4,322.8,-0.7,1.8,2470.348,13.34,0.03,0.0
2020-05-12T08:55:03,42.805,6.029,0.006,0.017,-0.003,104.0,106.0,101.0,13.3,1505.4,325.2,-0.7,1.8,2470.313,13.34,0.018,19.4
2020-05-12T08:58:03,42.805,6.029,0.022,0.012,-0.033,104.0,106.0,103.0,13.4,1505.4,325.1,-0.7,1.8,2470.295,13.34,0.025,61.4
2020-05-12T09:04:03,42.805,6.029,0.005,0.007,-0.037,103.0,109.0,101.0,13.4,1505.3,326.9,-0.7,1.8,2470.369,13.32,0.008,35.5
2020-05-12T09:07:03,42.805,6.029,-0.004,0.018,-0.012,103.0,109.0,101.0,13.4,1505.3,327.9,-0.7,1.9,2470.361,13.33,0.018,347.5
2020-05-12T09:10:03,42.805,6.029,0.0,0.003,-0.022,105.0,107.0,101.0,13.3,1505.3,324.8,-0.7,1.8,2470.351,13.33,0.003,0.0
2020-05-12T09:13:03,42.805,6.029,-0.003,0.026,-0.032,105.0,112.0,101.0,13.4,1505.3,324.3,-0.7,1.8,2470.38,13.33,0.026,353.4
2020-05-12T09:16:03,42.805,6.029,0.026,0.027,-0.048,106.0,108.0,101.0,13.3,1505.3,327.3,-0.7,1.9,2470.349,13.33,0.037,43.9
2020-05-12T09:19:03,42.805,6.029,-0.04,0.014,-0.079,106.0,107.0,105.0,13.4,1505.4,327.1,-0.7,1.8,2470.355,13.34,0.042,289.3
2020-05-12T09:22:03,42.805,6.029,-0.021,0.023,-0.064,104.0,108.0,102.0,13.4,1505.4,328.3,-0.7,1.8,2470.32,13.34,0.031,317.6
2020-05-12T09:25:03,42.805,6.029,-0.047,0.0,-0.073,104.0,107.0,101.0,13.4,1505.4,328.4,-0.7,1.8,2470.384,13.34,0.047,270.0
2020-05-12T09:28:03,42.805,6.029,-0.058,0.012,-0.089,104.0,107.0,100.0,13.3,1505.4,327.6,-0.7,1.8,2470.315,13.34,0.059,281.7
2020-05-12T09:31:03,42.805,6.029,-0.051,0.01,-0.068,104.0,108.0,102.0,13.3,1505.4,324.6,-0.7,1.8,2470.382,13.35,0.051,281.1
2020-05-12T09:34:03,42.805,6.029,-0.069,0.014,-0.105,105.0,105.0,102.0,13.3,1505.4,323.0,-0.8,1.8,2470.338,13.35,0.07,281.5
2020-05-12T09:37:03,42.805,6.029,-0.035,0.03,-0.059,104.0,107.0,101.0,13.4,1505.4,326.5,-0.7,1.8,2470.279,13.35,0.046,310.6
2020-05-12T09:40:03,42.805,6.029,-0.04,0.01,-0.107,104.0,107.0,100.0,13.4,1505.4,326.4,-0.7,1.8,2470.313,13.35,0.041,284.0
2020-05-12T09:43:03,42.805,6.029,-0.018,0.012,-0.054,105.0,116.0,104.0,13.4,1505.4,325.9,-0.7,1.8,2470.337,13.35,0.021,303.7
2020-05-12T09:46:03,42.805,6.029,-0.035,0.012,-0.059,104.0,106.0,103.0,13.3,1505.4,323.8,-0.7,1.8,2470.36,13.35,0.037,288.9
2020-05-12T09:49:03,42.805,6.029,-0.017,0.0,-0.031,106.0,107.0,103.0,13.3,1505.4,326.6,-0.7,1.8,2470.324,13.35,0.017,270.0
2020-05-12T09:52:03,42.805,6.029,-0.035,0.036,-0.037,107.0,107.0,101.0,13.3,1505.4,322.8,-0.7,1.8,2470.363,13.35,0.05,315.8
2020-05-12T09:55:03,42.805,6.029,0.01,0.006,0.001,105.0,107.0,102.0,13.3,1505.4,323.4,-0.7,1.8,2470.317,13.35,0.011,59.0
2020-05-12T09:58:03,42.805,6.029,-0.033,0.019,-0.061,104.0,107.0,102.0,13.4,1505.4,324.4,-0.7,1.8,2470.35,13.35,0.038,299.9
2020-05-12T10:04:03,42.805,6.029,-0.003,0.026,-0.06,104.0,106.0,102.0,13.4,1505.3,324.7,-0.7,1.8,2470.367,13.33,0.026,353.4
2020-05-12T10:07:03,42.805,6.029,0.007,0.017,-0.04,103.0,106.0,101.0,13.4,1505.4,327.7,-0.7,1.8,2470.336,13.34,0.018,22.4